GW6432 Weather Reports


time (UTC)temp
C
wind
direction
speed
KPH
gust
KPH
rain 1hr
cm
rain 24hr
cm
rain mn
cm
humidity
%
barometer
mb
20260509213050 31 329 1.6 6.4 0.00 0.00 0.00 62 1008.1
20260509212536 31 9 3.2 6.4 0.00 0.00 0.00 60 1008.1
20260509212036 32 325 1.6 8.0 0.00 0.00 0.00 60 1008.1
20260509211547 32 325 3.2 8.0 0.00 0.00 0.00 59 1008.1
20260509211037 32 306 1.6 9.7 0.00 0.00 0.00 59 1008.2
20260509210536 32 331 3.2 12.9 0.00 0.00 0.00 59 1008.1
20260509210050 32 360 3.2 12.9 0.00 0.00 0.00 59 1008.1
20260509205535 32 331 3.2 12.9 0.00 0.00 0.00 60 1008.2
20260509205035 32 333 4.8 11.3 0.00 0.00 0.00 60 1008.1
20260509204550 32 333 1.6 6.4 0.00 0.00 0.00 59 1008.3
20260509204035 32 323 0.0 8.0 0.00 0.00 0.00 59 1008.4
20260509203537 33 326 3.2 8.0 0.00 0.00 0.00 57 1008.5
20260509203056 33 328 3.2 6.4 0.00 0.00 0.00 59 1008.6
20260509202535 33 329 1.6 6.4 0.00 0.00 0.00 56 1008.7
20260509202035 33 242 0.0 8.0 0.00 0.00 0.00 58 1008.9
20260509201549 32 0 0.0 8.0 0.00 0.00 0.00 59 1009.0
20260509201035 32 273 3.2 8.0 0.00 0.00 0.00 60 1009.0
20260509200538 32 323 1.6 8.0 0.00 0.00 0.00 59 1009.0
20260509200054 32 360 1.6 8.0 0.00 0.00 0.00 60 1009.1
20260509195535 32 333 0.0 6.4 0.00 0.00 0.00 63 1009.1
20260509195034 32 0 1.6 8.0 0.00 0.00 0.00 63 1009.1
20260509194552 31 169 1.6 8.0 0.00 0.00 0.00 61 1009.1
20260509194033 31 211 3.2 8.0 0.00 0.00 0.00 62 1009.2
20260509193536 31 352 1.6 6.4 0.00 0.00 0.00 63 1009.2
20260509193049 31 322 1.6 9.7 0.00 0.00 0.00 63 1009.3
20260509192535 31 244 3.2 9.7 0.00 0.00 0.00 65 1009.5
20260509192035 31 348 1.6 8.0 0.00 0.00 0.00 63 1009.5
20260509191550 31 360 0.0 12.9 0.00 0.00 0.00 65 1009.5
20260509191038 31 28 0.0 12.9 0.00 0.00 0.00 63 1009.6
20260509190535 31 0 1.6 9.7 0.00 0.00 0.00 65 1009.7
20260509190047 31 319 3.2 9.7 0.00 0.00 0.00 66 1009.7
20260509185536 31 263 1.6 9.7 0.00 0.00 0.00 69 1009.8
20260509185034 30 200 1.6 6.4 0.00 0.00 0.00 68 1009.9
20260509184546 30 338 1.6 9.7 0.00 0.00 0.00 69 1009.9
20260509184035 30 0 3.2 9.7 0.00 0.00 0.00 69 1010.0
20260509183537 30 273 1.6 6.4 0.00 0.00 0.00 70 1010.0
20260509183137 30 325 1.6 4.8 0.00 0.00 0.00 70 1010.1
20260509182537 30 0 1.6 9.7 0.00 0.00 0.00 71 1010.2
20260509182036 30 271 0.0 9.7 0.00 0.00 0.00 71 1010.3
20260509181609 30 211 1.6 8.0 0.00 0.00 0.00 73 1010.3
20260509181035 29 239 1.6 8.0 0.00 0.00 0.00 75 1010.4
20260509180535 29 103 3.2 8.0 0.00 0.00 0.00 75 1010.5
20260509180055 28 165 0.0 8.0 0.00 0.00 0.00 75 1010.5
20260509175536 28 233 0.0 6.4 0.00 0.00 0.00 77 1010.6
20260509175036 28 331 1.6 6.4 0.00 0.00 0.00 79 1010.8
20260509174547 28 261 1.6 6.4 0.00 0.00 0.00 79 1010.7
20260509174037 27 348 1.6 8.0 0.00 0.00 0.00 79 1010.8
20260509173535 27 204 0.0 8.0 0.00 0.00 0.00 82 1010.8
20260509173047 27 171 1.6 8.0 0.00 0.00 0.00 83 1010.9
20260509172536 27 161 0.0 6.4 0.00 0.00 0.00 83 1011.0
20260509172036 26 292 0.0 6.4 0.00 0.00 0.00 86 1011.0
20260509171548 26 221 1.6 6.4 0.00 0.00 0.00 86 1010.9
20260509171035 26 249 0.0 4.8 0.00 0.00 0.00 87 1011.0
20260509170537 26 336 0.0 4.8 0.00 0.00 0.00 87 1010.9
20260509170046 25 0 0.0 0.0 0.00 0.00 0.00 87 1011.0
20260509165536 25 0 0.0 0.0 0.00 0.00 0.00 87 1011.0
20260509165035 25 0 0.0 0.0 0.00 0.00 0.00 87 1011.1
20260509164544 25 0 0.0 0.0 0.00 0.00 0.00 87 1011.1
20260509164036 25 0 0.0 0.0 0.00 0.00 0.00 88 1011.1
20260509163538 25 0 0.0 0.0 0.00 0.00 0.00 88 1011.1
20260509163057 25 0 0.0 0.0 0.00 0.00 0.00 88 1011.0
20260509162536 25 0 0.0 0.0 0.00 0.00 0.00 88 1011.0
20260509162036 25 0 0.0 0.0 0.00 0.00 0.00 89 1011.1
20260509161549 25 0 0.0 0.0 0.00 0.00 0.00 89 1011.1
20260509161038 25 0 0.0 0.0 0.00 0.00 0.00 90 1011.1
20260509160536 25 0 0.0 0.0 0.00 0.00 0.00 90 1011.0
20260509160049 25 0 0.0 0.0 0.00 0.00 0.00 91 1011.0
20260509155535 25 0 0.0 0.0 0.00 0.00 0.00 91 1011.1
20260509155036 25 0 0.0 0.0 0.00 0.00 0.00 91 1011.1
20260509154552 24 0 0.0 0.0 0.00 0.00 0.00 92 1010.9
20260509154036 24 0 0.0 1.6 0.00 0.00 0.00 92 1011.0
20260509153535 24 0 0.0 3.2 0.00 0.00 0.00 93 1011.1
20260509153045 24 0 0.0 4.8 0.00 0.00 0.00 93 1011.2
20260509152536 24 0 0.0 4.8 0.00 0.00 0.00 93 1011.2
20260509152036 23 140 0.0 3.2 0.00 0.00 0.00 93 1011.2
20260509151546 23 0 0.0 1.6 0.00 0.00 0.00 93 1011.1
20260509151038 23 0 0.0 3.2 0.00 0.00 0.00 93 1011.2
20260509150536 23 0 0.0 3.2 0.00 0.00 0.00 93 1011.2
20260509150051 23 140 0.0 4.8 0.00 0.00 0.00 94 1011.0
20260509145536 23 0 0.0 6.4 0.00 0.00 0.00 94 1011.0
20260509145039 23 0 1.6 6.4 0.00 0.00 0.00 94 1010.7
20260509144548 23 212 1.6 6.4 0.00 0.00 0.00 94 1010.4
20260509144035 23 0 0.0 6.4 0.00 0.00 0.00 94 1010.4
20260509143536 23 0 0.0 6.4 0.00 0.00 0.00 94 1010.3
20260509143046 23 222 1.6 9.7 0.00 0.00 0.00 94 1010.1
20260509142535 23 138 1.6 16.1 0.00 0.00 0.00 94 1009.9
20260509142035 23 201 6.4 16.1 0.00 0.00 0.00 94 1010.0
20260509141607 23 205 3.2 16.1 0.00 0.00 0.00 94 1010.1
20260509141036 23 128 3.2 16.1 0.00 0.00 0.00 94 1010.0
20260509140535 23 136 3.2 9.7 0.00 0.00 0.00 94 1010.0
20260509140057 23 215 3.2 8.0 0.00 0.00 0.00 94 1009.9
20260509135540 23 147 3.2 12.9 0.00 0.03 0.00 94 1009.8
20260509135035 23 146 1.6 12.9 0.00 0.03 0.00 94 1010.0
20260509134552 23 121 4.8 12.9 0.00 0.03 0.00 94 1010.0
20260509134036 23 175 3.2 11.3 0.00 0.03 0.00 94 1010.0
20260509133536 22 227 4.8 11.3 0.00 0.03 0.00 94 1010.0
20260509133047 22 217 4.8 11.3 0.00 0.03 0.00 94 1009.9
20260509132536 22 163 4.8 11.3 0.00 0.03 0.00 94 1010.0
20260509132036 22 0 4.8 11.3 0.00 0.03 0.00 94 1009.8
20260509131547 22 177 4.8 11.3 0.00 0.03 0.00 94 1009.8
20260509131036 22 135 1.6 8.0 0.00 0.03 0.00 94 1010.0
20260509130536 22 219 0.0 4.8 0.00 0.03 0.00 94 1010.2
20260509130053 22 0 0.0 6.4 0.00 0.03 0.00 94 1010.0
20260509125536 22 222 0.0 6.4 0.00 0.08 0.00 94 1009.9
20260509125038 22 0 1.6 6.4 0.00 0.08 0.00 94 1010.1
20260509124546 22 250 0.0 4.8 0.00 0.08 0.00 94 1010.0
20260509124035 22 195 0.0 4.8 0.00 0.08 0.00 94 1010.0
20260509123539 22 167 0.0 4.8 0.00 0.08 0.00 94 1009.8
20260509123055 22 0 1.6 4.8 0.00 0.08 0.00 94 1009.8
20260509122537 22 183 0.0 3.2 0.00 0.08 0.00 94 1009.9
20260509122036 22 0 0.0 1.6 0.00 0.08 0.00 94 1010.1
20260509121550 22 0 0.0 1.6 0.00 0.08 0.00 94 1010.4
20260509121037 22 0 0.0 1.6 0.00 0.08 0.00 94 1010.6
20260509120536 22 0 0.0 3.2 0.00 0.08 0.00 94 1010.4
20260509120053 22 0 0.0 3.2 0.00 0.08 0.00 94 1010.4
20260509115535 22 0 0.0 0.0 0.00 0.08 0.00 94 1010.3
20260509115035 22 0 0.0 0.0 0.00 0.08 0.00 94 1010.4
20260509114547 22 0 0.0 0.0 0.00 0.08 0.00 94 1010.4
20260509114036 22 0 0.0 0.0 0.00 0.08 0.00 94 1010.5
20260509113536 22 0 0.0 0.0 0.00 0.08 0.00 94 1010.5
20260509113046 22 0 0.0 0.0 0.00 0.08 0.00 94 1010.4
20260509112534 22 0 0.0 3.2 0.00 0.08 0.00 94 1010.4
20260509112034 22 0 0.0 3.2 0.00 0.08 0.00 93 1010.4
20260509111549 22 0 0.0 3.2 0.00 0.08 0.00 94 1010.3
20260509111034 22 0 0.0 0.0 0.00 0.08 0.00 94 1010.1
20260509110537 22 0 0.0 0.0 0.00 0.08 0.00 93 1009.9
20260509110050 22 0 0.0 0.0 0.00 0.08 0.00 93 1010.2
20260509105535 22 0 0.0 0.0 0.00 0.08 0.00 93 1010.3
20260509105036 22 0 0.0 0.0 0.00 0.08 0.00 93 1010.3
20260509104554 22 0 0.0 1.6 0.00 0.08 0.00 93 1010.2
20260509104036 22 0 0.0 1.6 0.00 0.08 0.00 93 1010.3
20260509103534 22 0 0.0 1.6 0.00 0.08 0.00 93 1010.3
20260509103050 22 0 0.0 0.0 0.00 0.08 0.00 93 1010.6
20260509102535 22 0 0.0 0.0 0.00 0.08 0.00 93 1010.7
20260509102035 22 0 0.0 0.0 0.00 0.08 0.00 93 1010.7
20260509101554 22 0 0.0 3.2 0.00 0.08 0.00 93 1010.5
20260509101034 22 0 0.0 4.8 0.00 0.08 0.00 93 1010.4
20260509100534 22 0 0.0 4.8 0.00 0.08 0.00 93 1010.6
20260509100050 22 0 0.0 3.2 0.00 0.08 0.00 93 1010.4
20260509095535 22 0 0.0 3.2 0.00 0.08 0.00 93 1010.3
20260509095035 22 0 0.0 3.2 0.00 0.08 0.00 93 1010.2
20260509094551 22 0 0.0 3.2 0.00 0.08 0.00 93 1010.3
20260509094034 22 0 0.0 3.2 0.00 0.08 0.00 93 1010.3
20260509093534 22 0 0.0 3.2 0.00 0.08 0.00 93 1009.7
20260509093056 22 0 0.0 3.2 0.00 0.08 0.00 93 1009.5
20260509092533 22 183 0.0 1.6 0.00 0.08 0.00 93 1009.7
20260509092035 22 0 0.0 1.6 0.00 0.08 0.00 93 1009.8
20260509091546 22 0 0.0 1.6 0.00 0.08 0.00 93 1009.8
20260509091036 22 0 0.0 1.6 0.00 0.08 0.00 93 1010.0
20260509090536 22 0 0.0 1.6 0.00 0.08 0.00 93 1009.9
20260509090050 22 0 0.0 1.6 0.00 0.08 0.00 93 1010.0
20260509085536 22 0 0.0 3.2 0.00 0.08 0.00 93 1010.1
20260509085036 22 0 0.0 3.2 0.00 0.08 0.00 93 1010.3
20260509084554 22 182 0.0 1.6 0.00 0.08 0.00 92 1010.4
20260509084035 22 0 0.0 1.6 0.00 0.08 0.00 92 1010.5
20260509083534 22 0 0.0 1.6 0.00 0.08 0.00 92 1010.4
20260509083052 22 0 0.0 0.0 0.00 0.08 0.00 92 1010.4
20260509082534 22 0 0.0 0.0 0.00 0.08 0.00 92 1010.5
20260509082039 22 0 0.0 0.0 0.00 0.08 0.00 92 1010.4
20260509081552 22 0 0.0 3.2 0.00 0.08 0.00 92 1010.4
20260509081036 22 0 0.0 3.2 0.00 0.08 0.00 92 1010.4
20260509080535 22 183 0.0 6.4 0.00 0.08 0.00 92 1010.4
20260509080054 22 182 1.6 6.4 0.00 0.08 0.00 92 1010.4
20260509075536 22 0 1.6 6.4 0.00 0.08 0.00 92 1010.3
20260509075037 22 150 1.6 4.8 0.00 0.08 0.00 92 1010.2
20260509074549 22 150 0.0 4.8 0.00 0.08 0.00 92 1010.1
20260509074035 22 150 1.6 4.8 0.00 0.08 0.00 92 1010.4
20260509073536 22 150 1.6 4.8 0.00 0.08 0.00 92 1010.4
20260509073048 22 150 0.0 4.8 0.00 0.08 0.00 92 1010.5
20260509072537 22 0 0.0 4.8 0.00 0.08 0.00 92 1010.7
20260509072035 22 150 0.0 4.8 0.00 0.08 0.00 92 1010.7
20260509071552 22 0 0.0 4.8 0.00 0.08 0.00 92 1010.7
20260509071035 22 150 0.0 4.8 0.00 0.08 0.00 92 1010.7
20260509070535 22 150 1.6 8.0 0.00 0.08 0.00 92 1010.6
20260509070054 22 0 0.0 8.0 0.00 0.08 0.00 92 1010.5
20260509065535 22 163 1.6 6.4 0.00 0.08 0.00 91 1010.6
20260509065034 22 168 1.6 11.3 0.00 0.08 0.00 92 1010.6
20260509064551 22 225 1.6 11.3 0.00 0.08 0.00 92 1010.6
20260509064033 22 213 4.8 11.3 0.00 0.08 0.00 92 1010.4
20260509063534 22 164 3.2 11.3 0.00 0.08 0.00 91 1010.3
20260509063048 22 202 4.8 11.3 0.00 0.08 0.00 91 1010.2
20260509062535 22 138 3.2 8.0 0.00 0.08 0.00 91 1010.2
20260509062035 22 207 1.6 14.5 0.00 0.08 0.00 91 1010.3
20260509061549 22 0 3.2 14.5 0.00 0.08 0.00 91 1010.3
20260509061035 22 184 4.8 14.5 0.00 0.08 0.00 91 1010.3
20260509060536 22 155 4.8 9.7 0.00 0.08 0.00 91 1010.3
20260509060048 22 219 3.2 9.7 0.00 0.08 0.00 91 1010.6
20260509055537 22 142 3.2 9.7 0.00 0.08 0.00 91 1010.6
20260509055038 22 205 1.6 9.7 0.00 0.08 0.00 91 1010.5
20260509054550 22 150 4.8 9.7 0.00 0.08 0.00 91 1010.3
20260509054036 22 166 3.2 9.7 0.00 0.08 0.00 91 1010.3
20260509053536 22 172 1.6 9.7 0.00 0.08 0.00 91 1010.3
20260509053052 22 209 3.2 9.7 0.00 0.08 0.00 91 1010.1
20260509052534 22 133 1.6 8.0 0.00 0.08 0.00 91 1010.1
20260509052040 22 158 3.2 12.9 0.00 0.08 0.00 90 1010.1
20260509051558 22 136 3.2 12.9 0.00 0.08 0.00 90 1010.0
20260509051035 22 146 4.8 12.9 0.00 0.08 0.00 90 1009.9
20260509050535 22 128 3.2 11.3 0.00 0.08 0.00 90 1010.0
20260509050049 22 146 1.6 11.3 0.00 0.08 0.00 90 1010.1
20260509045535 23 157 1.6 11.3 0.00 0.08 0.08 90 1010.1
20260509045036 23 145 3.2 9.7 0.00 0.08 0.08 90 1010.1
20260509044548 23 128 3.2 12.9 0.00 0.08 0.08 90 1010.2
20260509044035 23 151 3.2 12.9 0.00 0.08 0.08 90 1010.0
20260509043536 23 201 4.8 12.9 0.00 0.08 0.08 90 1009.8
20260509043048 23 151 4.8 14.5 0.00 0.08 0.08 90 1009.7
20260509042537 23 152 4.8 14.5 0.00 0.08 0.08 89 1009.6
20260509042036 23 140 6.4 14.5 0.00 0.08 0.08 89 1009.7
20260509041549 23 166 3.2 16.1 0.00 0.08 0.08 89 1009.8
20260509041035 23 138 4.8 16.1 0.00 0.08 0.08 89 1009.8
20260509040534 23 163 4.8 16.1 0.00 0.08 0.08 89 1009.8
20260509040049 23 153 4.8 16.1 0.00 0.08 0.08 88 1009.8
20260509035537 23 143 6.4 14.5 0.00 0.08 0.08 88 1009.8
20260509035037 23 144 6.4 12.9 0.00 0.08 0.08 88 1009.8
20260509034549 23 154 4.8 12.9 0.00 0.08 0.08 88 1009.7
20260509034034 23 141 4.8 9.7 0.00 0.08 0.08 88 1009.7
20260509033535 23 130 4.8 9.7 0.00 0.08 0.08 88 1009.7
20260509033046 23 142 3.2 12.9 0.00 0.08 0.08 88 1009.7
20260509032537 23 155 3.2 12.9 0.00 0.08 0.08 87 1009.7
20260509032034 23 140 4.8 12.9 0.00 0.08 0.08 87 1009.6
20260509031546 23 148 3.2 9.7 0.00 0.08 0.08 87 1009.5
20260509031034 23 126 3.2 9.7 0.00 0.08 0.08 87 1009.5
20260509030535 23 138 3.2 11.3 0.00 0.08 0.08 87 1009.4
20260509030051 23 0 3.2 11.3 0.00 0.08 0.08 87 1009.4
20260509025536 23 141 3.2 11.3 0.00 0.08 0.08 87 1009.4
20260509025038 23 142 3.2 11.3 0.00 0.08 0.08 86 1009.4
20260509024548 23 182 1.6 9.7 0.00 0.08 0.08 86 1009.4
20260509024036 23 205 3.2 12.9 0.00 0.08 0.08 86 1009.3
20260509023535 23 149 3.2 12.9 0.00 0.08 0.08 86 1009.3
20260509023047 23 139 3.2 12.9 0.00 0.08 0.08 86 1009.2
20260509022539 23 182 3.2 12.9 0.00 0.08 0.08 86 1009.3
20260509022037 24 150 4.8 12.9 0.00 0.08 0.08 85 1009.4
20260509021548 24 162 4.8 12.9 0.00 0.08 0.08 85 1009.3
20260509021034 24 140 1.6 8.0 0.00 0.08 0.08 85 1009.3
20260509020534 24 128 3.2 8.0 0.00 0.08 0.08 85 1009.2
20260509020046 24 127 1.6 6.4 0.00 0.08 0.08 85 1009.2
20260509015536 24 127 1.6 6.4 0.00 0.08 0.08 85 1009.2
20260509015037 24 0 3.2 6.4 0.00 0.08 0.08 85 1009.1
20260509014547 24 127 1.6 4.8 0.00 0.08 0.08 84 1009.2
20260509014034 24 0 0.0 4.8 0.00 0.08 0.08 84 1009.2
20260509013535 24 127 1.6 4.8 0.00 0.08 0.08 84 1009.2
20260509013105 24 127 1.6 4.8 0.00 0.08 0.08 84 1009.2
20260509012535 25 127 1.6 4.8 0.00 0.08 0.08 84 1009.2
20260509012035 25 127 1.6 6.4 0.00 0.08 0.08 83 1009.1
20260509011556 25 127 1.6 6.4 0.00 0.08 0.08 83 1009.0
20260509011034 25 140 3.2 6.4 0.00 0.08 0.08 83 1009.0
20260509010534 25 135 3.2 6.4 0.00 0.08 0.08 83 1009.0
20260509010048 25 0 1.6 6.4 0.00 0.08 0.08 83 1009.0
20260509005536 25 121 1.6 9.7 0.00 0.08 0.08 82 1008.9
20260509005036 25 121 3.2 9.7 0.00 0.08 0.08 82 1009.0
20260509004546 25 154 1.6 12.9 0.00 0.08 0.08 82 1008.9
20260509004034 25 134 4.8 12.9 0.00 0.08 0.08 82 1008.7
20260509003534 25 150 1.6 9.7 0.00 0.08 0.08 82 1008.8
20260509003052 25 115 3.2 11.3 0.00 0.08 0.08 82 1008.9
20260509002535 25 133 3.2 11.3 0.00 0.08 0.08 82 1009.1
20260509002035 25 143 4.8 12.9 0.00 0.08 0.08 82 1009.0
20260509001544 25 135 4.8 14.5 0.00 0.08 0.08 82 1008.9
20260509001034 25 107 4.8 14.5 0.00 0.08 0.08 81 1008.9
20260509000538 25 129 4.8 14.5 0.00 0.08 0.08 81 1008.9
20260509000048 25 163 4.8 17.7 0.00 0.08 0.08 81 1008.8
20260508235535 25 115 3.2 17.7 0.00 0.08 0.08 80 1008.8
20260508235036 25 134 6.4 17.7 0.00 0.08 0.08 80 1008.9
20260508234548 26 130 6.4 14.5 0.00 0.08 0.08 80 1008.9
20260508234039 26 163 4.8 14.5 0.00 0.08 0.08 79 1008.9
20260508233535 26 121 8.0 16.1 0.00 0.08 0.08 78 1009.0
20260508233059 26 149 6.4 16.1 0.00 0.08 0.08 78 1008.9
20260508232537 26 140 6.4 16.1 0.00 0.08 0.08 79 1009.0
20260508232034 26 117 3.2 12.9 0.00 0.08 0.08 79 1008.9
20260508231552 26 126 4.8 14.5 0.00 0.08 0.08 79 1008.9
20260508231036 26 134 4.8 14.5 0.00 0.08 0.08 79 1008.9
20260508230537 26 121 6.4 14.5 0.00 0.08 0.08 79 1008.8
20260508230054 26 136 3.2 9.7 0.00 0.08 0.08 79 1009.0
20260508225535 26 116 3.2 9.7 0.00 0.08 0.08 77 1009.3
20260508225037 26 131 3.2 9.7 0.00 0.08 0.08 77 1009.2
20260508224544 26 128 4.8 9.7 0.00 0.08 0.08 76 1009.2
20260508224035 26 121 3.2 9.7 0.00 0.08 0.08 76 1009.1
20260508223535 27 125 3.2 9.7 0.00 0.08 0.08 75 1009.2
20260508223050 27 104 3.2 9.7 0.00 0.08 0.08 75 1009.2
20260508222534 27 138 3.2 9.7 0.00 0.08 0.08 74 1009.2
20260508222035 27 121 3.2 6.4 0.00 0.08 0.08 73 1009.2
20260508221545 27 145 1.6 6.4 0.00 0.08 0.08 73 1009.1
20260508221035 27 121 1.6 6.4 0.00 0.08 0.08 72 1009.1
20260508220534 27 76 1.6 11.3 0.00 0.08 0.08 73 1009.1
20260508220048 27 160 1.6 11.3 0.00 0.08 0.08 73 1009.2
20260508215535 27 132 4.8 11.3 0.00 0.08 0.08 72 1009.1
20260508215034 27 220 3.2 11.3 0.00 0.08 0.08 73 1009.2
20260508214548 27 192 3.2 11.3 0.00 0.08 0.08 74 1009.2
20260508214037 27 173 1.6 9.7 0.00 0.08 0.08 75 1009.2
20260508213537 27 159 3.2 9.7 0.00 0.08 0.08 73 1009.3